| time (UTC) | temp F | wind direction | speed MPH | gust MPH | rain 1hr in | rain 24hr in | rain mn in | humidity % | barometer mb |
| 20260905202643 | 80 | 157 | 2.0 | 7.0 | 0.00 | 0.00 | 0.00 | 69 | 1019.2 |
| 20260905202146 | 80 | 161 | 4.0 | 6.0 | 0.00 | 0.00 | 0.00 | 69 | 1019.3 |
| 20260905201643 | 80 | 128 | 2.0 | 7.0 | 0.00 | 0.00 | 0.00 | 69 | 1019.4 |
| 20260905201149 | 80 | 142 | 1.0 | 7.0 | 0.00 | 0.00 | 0.00 | 69 | 1019.4 |
| 20260905200646 | 80 | 153 | 3.0 | 8.0 | 0.00 | 0.00 | 0.00 | 69 | 1019.3 |
| 20260905200146 | 80 | 170 | 1.0 | 5.0 | 0.00 | 0.00 | 0.00 | 68 | 1019.3 |
| 20260905195643 | 80 | 136 | 4.0 | 6.0 | 0.00 | 0.00 | 0.00 | 68 | 1019.4 |
| 20260905195152 | 80 | 153 | 4.0 | 6.0 | 0.00 | 0.00 | 0.00 | 68 | 1019.4 |
| 20260905194643 | 81 | 167 | 3.0 | 7.0 | 0.00 | 0.00 | 0.00 | 68 | 1019.3 |
| 20260905194149 | 81 | 154 | 1.0 | 6.0 | 0.00 | 0.00 | 0.00 | 67 | 1019.4 |
| 20260905193646 | 81 | 121 | 2.0 | 5.0 | 0.00 | 0.00 | 0.00 | 67 | 1019.4 |
| 20260905193146 | 81 | 159 | 2.0 | 6.0 | 0.00 | 0.00 | 0.00 | 67 | 1019.4 |
| 20260905192647 | 81 | 142 | 0.0 | 5.0 | 0.00 | 0.00 | 0.00 | 68 | 1019.3 |
| 20260905192146 | 81 | 130 | 1.0 | 3.0 | 0.00 | 0.00 | 0.00 | 68 | 1019.3 |
| 20260905191643 | 81 | 123 | 2.0 | 4.0 | 0.00 | 0.00 | 0.00 | 69 | 1019.2 |
| 20260905191143 | 81 | 151 | 2.0 | 6.0 | 0.00 | 0.00 | 0.00 | 69 | 1019.2 |
| 20260905190643 | 81 | 184 | 3.0 | 7.0 | 0.00 | 0.00 | 0.00 | 69 | 1019.1 |
| 20260905190146 | 82 | 165 | 3.0 | 5.0 | 0.00 | 0.00 | 0.00 | 69 | 1019.1 |
| 20260905185643 | 82 | 127 | 2.0 | 5.0 | 0.00 | 0.00 | 0.00 | 69 | 1019.0 |
| 20260905185152 | 82 | 146 | 0.0 | 4.0 | 0.00 | 0.00 | 0.00 | 69 | 1018.8 |
| 20260905184646 | 83 | 146 | 0.0 | 3.0 | 0.00 | 0.00 | 0.00 | 69 | 1018.8 |
| 20260905184146 | 83 | 138 | 1.0 | 5.0 | 0.00 | 0.00 | 0.00 | 68 | 1018.8 |
| 20260905183643 | 83 | 146 | 0.0 | 1.0 | 0.00 | 0.00 | 0.00 | 69 | 1018.7 |
| 20260905183143 | 84 | 146 | 1.0 | 4.0 | 0.00 | 0.00 | 0.00 | 68 | 1018.8 |
| 20260905182643 | 84 | 5 | 0.0 | 3.0 | 0.00 | 0.00 | 0.00 | 70 | 1018.7 |
| 20260905182146 | 84 | 350 | 0.0 | 3.0 | 0.00 | 0.00 | 0.00 | 70 | 1018.6 |
| 20260905181646 | 84 | 335 | 0.0 | 3.0 | 0.00 | 0.00 | 0.00 | 71 | 1018.6 |
| 20260905181143 | 84 | 335 | 2.0 | 3.0 | 0.00 | 0.00 | 0.00 | 71 | 1018.6 |
| 20260905180646 | 84 | 303 | 0.0 | 3.0 | 0.00 | 0.00 | 0.00 | 70 | 1018.5 |
| 20260905180149 | 84 | 342 | 2.0 | 4.0 | 0.00 | 0.00 | 0.00 | 70 | 1018.5 |
| 20260905175646 | 85 | 355 | 2.0 | 4.0 | 0.00 | 0.00 | 0.00 | 70 | 1018.4 |
| 20260905175144 | 85 | 275 | 0.0 | 3.0 | 0.00 | 0.00 | 0.00 | 69 | 1018.4 |
| 20260905174646 | 85 | 308 | 0.0 | 3.0 | 0.00 | 0.00 | 0.00 | 69 | 1018.4 |
| 20260905174149 | 85 | 296 | 2.0 | 3.0 | 0.00 | 0.00 | 0.00 | 69 | 1018.4 |
| 20260905173646 | 85 | 293 | 3.0 | 4.0 | 0.00 | 0.00 | 0.00 | 68 | 1018.4 |
| 20260905173146 | 85 | 281 | 4.0 | 5.0 | 0.00 | 0.00 | 0.00 | 68 | 1018.3 |
| 20260905172646 | 85 | 301 | 1.0 | 4.0 | 0.00 | 0.00 | 0.00 | 67 | 1018.3 |
| 20260905172146 | 85 | 292 | 2.0 | 5.0 | 0.00 | 0.00 | 0.00 | 67 | 1018.3 |
| 20260905171646 | 86 | 284 | 3.0 | 5.0 | 0.00 | 0.00 | 0.00 | 66 | 1018.3 |
| 20260905171143 | 86 | 294 | 3.0 | 5.0 | 0.00 | 0.00 | 0.00 | 65 | 1018.3 |
| 20260905170649 | 86 | 267 | 4.0 | 5.0 | 0.00 | 0.00 | 0.00 | 65 | 1018.3 |
| 20260905170143 | 87 | 312 | 2.0 | 6.0 | 0.00 | 0.00 | 0.00 | 64 | 1018.2 |
| 20260905165649 | 87 | 334 | 3.0 | 4.0 | 0.00 | 0.00 | 0.00 | 64 | 1018.2 |
| 20260905165143 | 87 | 268 | 3.0 | 5.0 | 0.00 | 0.00 | 0.00 | 63 | 1018.2 |
| 20260905164643 | 87 | 296 | 3.0 | 6.0 | 0.00 | 0.00 | 0.00 | 63 | 1018.2 |
| 20260905164143 | 87 | 301 | 2.0 | 6.0 | 0.00 | 0.00 | 0.00 | 63 | 1018.2 |
| 20260905163646 | 87 | 312 | 4.0 | 6.0 | 0.00 | 0.00 | 0.00 | 62 | 1018.2 |
| 20260905163143 | 88 | 289 | 2.0 | 6.0 | 0.00 | 0.00 | 0.00 | 61 | 1018.3 |
| 20260905162643 | 87 | 323 | 1.0 | 7.0 | 0.00 | 0.00 | 0.00 | 61 | 1018.3 |
| 20260905162143 | 87 | 337 | 3.0 | 6.0 | 0.00 | 0.00 | 0.00 | 63 | 1018.2 |
| 20260905161643 | 87 | 342 | 2.0 | 6.0 | 0.00 | 0.00 | 0.00 | 61 | 1018.3 |
| 20260905161143 | 87 | 305 | 1.0 | 8.0 | 0.00 | 0.00 | 0.00 | 62 | 1018.4 |
| 20260905160646 | 88 | 40 | 2.0 | 7.0 | 0.00 | 0.00 | 0.00 | 59 | 1018.4 |
| 20260905160146 | 88 | 342 | 1.0 | 7.0 | 0.00 | 0.00 | 0.00 | 60 | 1018.4 |
| 20260905155646 | 89 | 311 | 7.0 | 8.0 | 0.00 | 0.00 | 0.00 | 60 | 1018.3 |
| 20260905155146 | 88 | 347 | 1.0 | 6.0 | 0.00 | 0.00 | 0.00 | 62 | 1018.3 |
| 20260905154643 | 88 | 333 | 3.0 | 8.0 | 0.00 | 0.00 | 0.00 | 61 | 1018.3 |
| 20260905154143 | 89 | 314 | 4.0 | 9.0 | 0.00 | 0.00 | 0.00 | 61 | 1018.3 |
| 20260905153646 | 89 | 342 | 3.0 | 8.0 | 0.00 | 0.00 | 0.00 | 61 | 1018.3 |
| 20260905153149 | 89 | 287 | 6.0 | 7.0 | 0.00 | 0.00 | 0.00 | 61 | 1018.3 |
| 20260905152649 | 89 | 38 | 3.0 | 11.0 | 0.00 | 0.00 | 0.00 | 60 | 1018.3 |
| 20260905152143 | 89 | 334 | 4.0 | 11.0 | 0.00 | 0.00 | 0.00 | 59 | 1018.3 |
| 20260905151643 | 89 | 282 | 4.0 | 7.0 | 0.00 | 0.00 | 0.00 | 59 | 1018.2 |
| 20260905151143 | 90 | 275 | 6.0 | 9.0 | 0.00 | 0.00 | 0.00 | 58 | 1018.2 |
| 20260905150643 | 90 | 300 | 6.0 | 7.0 | 0.00 | 0.00 | 0.00 | 58 | 1018.2 |
| 20260905150143 | 90 | 308 | 5.0 | 9.0 | 0.00 | 0.00 | 0.00 | 55 | 1018.2 |
| 20260905145643 | 90 | 298 | 0.0 | 6.0 | 0.00 | 0.00 | 0.00 | 54 | 1018.2 |
| 20260905145143 | 90 | 276 | 5.0 | 7.0 | 0.00 | 0.00 | 0.00 | 51 | 1018.2 |
| 20260905144650 | 91 | 5 | 5.0 | 9.0 | 0.00 | 0.00 | 0.00 | 51 | 1018.2 |
| 20260905144146 | 91 | 339 | 3.0 | 7.0 | 0.00 | 0.00 | 0.00 | 54 | 1018.2 |
| 20260905143643 | 91 | 333 | 2.0 | 7.0 | 0.00 | 0.00 | 0.00 | 53 | 1018.2 |
| 20260905143143 | 91 | 355 | 4.0 | 5.0 | 0.00 | 0.00 | 0.00 | 49 | 1018.2 |
| 20260905142643 | 91 | 330 | 4.0 | 8.0 | 0.00 | 0.00 | 0.00 | 40 | 1018.3 |
| 20260905142149 | 91 | 292 | 2.0 | 8.0 | 0.00 | 0.00 | 0.00 | 46 | 1018.3 |
| 20260905141649 | 91 | 295 | 4.0 | 5.0 | 0.00 | 0.00 | 0.00 | 44 | 1018.2 |
| 20260905141143 | 91 | 326 | 1.0 | 6.0 | 0.00 | 0.00 | 0.00 | 43 | 1018.3 |
| 20260905140643 | 91 | 245 | 2.0 | 9.0 | 0.00 | 0.00 | 0.00 | 44 | 1018.3 |
| 20260905140143 | 91 | 323 | 3.0 | 6.0 | 0.00 | 0.00 | 0.00 | 45 | 1018.3 |
| 20260905135643 | 91 | 272 | 3.0 | 8.0 | 0.00 | 0.00 | 0.00 | 44 | 1018.3 |
| 20260905135149 | 91 | 16 | 2.0 | 6.0 | 0.00 | 0.00 | 0.00 | 46 | 1018.3 |
| 20260905134652 | 91 | 355 | 4.0 | 7.0 | 0.00 | 0.00 | 0.00 | 47 | 1018.3 |
| 20260905134146 | 91 | 264 | 3.0 | 7.0 | 0.00 | 0.00 | 0.00 | 50 | 1018.4 |
| 20260905133643 | 91 | 303 | 2.0 | 9.0 | 0.00 | 0.00 | 0.00 | 49 | 1018.4 |
| 20260905133143 | 91 | 348 | 6.0 | 6.0 | 0.00 | 0.00 | 0.00 | 51 | 1018.4 |
| 20260905132650 | 91 | 285 | 4.0 | 9.0 | 0.00 | 0.00 | 0.00 | 53 | 1018.5 |
| 20260905132143 | 91 | 250 | 1.0 | 8.0 | 0.00 | 0.00 | 0.00 | 52 | 1018.5 |
| 20260905131643 | 91 | 281 | 1.0 | 6.0 | 0.00 | 0.00 | 0.00 | 54 | 1018.6 |
| 20260905131143 | 91 | 292 | 4.0 | 8.0 | 0.00 | 0.00 | 0.00 | 55 | 1018.6 |
| 20260905130643 | 91 | 279 | 5.0 | 9.0 | 0.00 | 0.00 | 0.00 | 55 | 1018.6 |
| 20260905130146 | 91 | 290 | 7.0 | 7.0 | 0.00 | 0.00 | 0.00 | 55 | 1018.7 |
| 20260905125649 | 90 | 248 | 4.0 | 8.0 | 0.00 | 0.00 | 0.00 | 55 | 1018.7 |
| 20260905125149 | 91 | 296 | 6.0 | 8.0 | 0.00 | 0.00 | 0.00 | 54 | 1018.8 |
| 20260905124643 | 90 | 298 | 4.0 | 8.0 | 0.00 | 0.00 | 0.00 | 54 | 1018.8 |
| 20260905124146 | 90 | 281 | 4.0 | 6.0 | 0.00 | 0.00 | 0.00 | 55 | 1018.8 |
| 20260905123643 | 90 | 340 | 1.0 | 7.0 | 0.00 | 0.00 | 0.00 | 53 | 1018.8 |
| 20260905123149 | 90 | 345 | 5.0 | 6.0 | 0.00 | 0.00 | 0.00 | 55 | 1018.9 |
| 20260905122652 | 90 | 309 | 4.0 | 7.0 | 0.00 | 0.00 | 0.00 | 56 | 1018.8 |
| 20260905122149 | 89 | 24 | 1.0 | 10.0 | 0.00 | 0.00 | 0.00 | 57 | 1018.8 |
| 20260905121646 | 89 | 313 | 2.0 | 8.0 | 0.00 | 0.00 | 0.00 | 59 | 1018.9 |
| 20260905121143 | 90 | 320 | 5.0 | 7.0 | 0.00 | 0.00 | 0.00 | 57 | 1018.9 |
| 20260905120646 | 90 | 281 | 2.0 | 8.0 | 0.00 | 0.00 | 0.00 | 57 | 1019.0 |
| 20260905120143 | 90 | 285 | 5.0 | 7.0 | 0.00 | 0.00 | 0.00 | 58 | 1019.0 |
| 20260905115646 | 90 | 228 | 1.0 | 9.0 | 0.00 | 0.00 | 0.00 | 57 | 1019.1 |
| 20260905115146 | 90 | 336 | 5.0 | 7.0 | 0.00 | 0.00 | 0.00 | 56 | 1019.1 |
| 20260905114643 | 90 | 260 | 5.0 | 7.0 | 0.00 | 0.00 | 0.00 | 56 | 1019.1 |
| 20260905114143 | 90 | 320 | 2.0 | 6.0 | 0.00 | 0.00 | 0.00 | 56 | 1019.1 |
| 20260905113643 | 90 | 292 | 1.0 | 7.0 | 0.00 | 0.00 | 0.00 | 57 | 1019.1 |
| 20260905113152 | 90 | 314 | 3.0 | 10.0 | 0.00 | 0.00 | 0.00 | 57 | 1019.1 |
| 20260905112643 | 89 | 309 | 1.0 | 7.0 | 0.00 | 0.00 | 0.00 | 58 | 1019.1 |
| 20260905112149 | 89 | 14 | 5.0 | 7.0 | 0.00 | 0.00 | 0.00 | 57 | 1019.1 |
| 20260905111643 | 89 | 323 | 2.0 | 7.0 | 0.00 | 0.00 | 0.00 | 58 | 1019.2 |
| 20260905111143 | 90 | 276 | 6.0 | 8.0 | 0.00 | 0.00 | 0.00 | 59 | 1019.1 |
| 20260905110646 | 90 | 304 | 3.0 | 6.0 | 0.00 | 0.00 | 0.00 | 60 | 1019.1 |
| 20260905110143 | 90 | 281 | 2.0 | 8.0 | 0.00 | 0.00 | 0.00 | 57 | 1019.2 |
| 20260905105649 | 89 | 317 | 3.0 | 6.0 | 0.00 | 0.00 | 0.00 | 58 | 1019.1 |
| 20260905105149 | 89 | 284 | 6.0 | 6.0 | 0.00 | 0.00 | 0.00 | 59 | 1019.1 |
| 20260905104643 | 89 | 260 | 3.0 | 10.0 | 0.00 | 0.00 | 0.00 | 59 | 1019.0 |
| 20260905104143 | 89 | 319 | 5.0 | 10.0 | 0.00 | 0.00 | 0.00 | 55 | 1019.1 |
| 20260905103643 | 89 | 315 | 5.0 | 6.0 | 0.00 | 0.00 | 0.00 | 59 | 1019.0 |
| 20260905103143 | 89 | 5 | 5.0 | 8.0 | 0.00 | 0.00 | 0.00 | 59 | 1019.0 |
| 20260905102652 | 88 | 308 | 6.0 | 8.0 | 0.00 | 0.00 | 0.00 | 58 | 1019.1 |
| 20260905102143 | 88 | 290 | 5.0 | 9.0 | 0.00 | 0.00 | 0.00 | 57 | 1019.1 |
| 20260905101643 | 88 | 304 | 3.0 | 7.0 | 0.00 | 0.00 | 0.00 | 57 | 1019.1 |
| 20260905101146 | 88 | 274 | 4.0 | 8.0 | 0.00 | 0.00 | 0.00 | 56 | 1019.1 |
| 20260905100643 | 88 | 292 | 3.0 | 9.0 | 0.00 | 0.00 | 0.00 | 56 | 1019.1 |
| 20260905100143 | 88 | 283 | 4.0 | 10.0 | 0.00 | 0.00 | 0.00 | 55 | 1019.0 |
| 20260905095646 | 89 | 284 | 5.0 | 7.0 | 0.00 | 0.00 | 0.00 | 55 | 1019.0 |
| 20260905095146 | 89 | 332 | 2.0 | 9.0 | 0.00 | 0.00 | 0.00 | 53 | 1019.1 |
| 20260905094644 | 89 | 275 | 5.0 | 9.0 | 0.00 | 0.00 | 0.00 | 53 | 1019.0 |
| 20260905094146 | 89 | 267 | 7.0 | 8.0 | 0.00 | 0.00 | 0.00 | 52 | 1019.1 |
| 20260905093646 | 89 | 270 | 5.0 | 8.0 | 0.00 | 0.00 | 0.00 | 52 | 1019.1 |
| 20260905093149 | 89 | 278 | 5.0 | 9.0 | 0.00 | 0.00 | 0.00 | 50 | 1019.1 |
| 20260905092646 | 89 | 277 | 1.0 | 6.0 | 0.00 | 0.00 | 0.00 | 50 | 1019.1 |
| 20260905092143 | 89 | 21 | 2.0 | 7.0 | 0.00 | 0.00 | 0.00 | 50 | 1019.1 |
| 20260905091646 | 89 | 330 | 3.0 | 8.0 | 0.00 | 0.00 | 0.00 | 50 | 1019.1 |
| 20260905091143 | 89 | 42 | 0.0 | 7.0 | 0.00 | 0.00 | 0.00 | 52 | 1019.1 |
| 20260905090643 | 88 | 261 | 3.0 | 5.0 | 0.00 | 0.00 | 0.00 | 52 | 1019.1 |
| 20260905090143 | 88 | 294 | 4.0 | 8.0 | 0.00 | 0.00 | 0.00 | 53 | 1019.1 |
| 20260905085643 | 88 | 294 | 2.0 | 10.0 | 0.00 | 0.00 | 0.00 | 51 | 1019.2 |
| 20260905085143 | 88 | 293 | 1.0 | 6.0 | 0.00 | 0.00 | 0.00 | 55 | 1019.2 |
| 20260905084646 | 87 | 328 | 3.0 | 5.0 | 0.00 | 0.00 | 0.00 | 57 | 1019.2 |
| 20260905084146 | 87 | 234 | 0.0 | 6.0 | 0.00 | 0.00 | 0.00 | 59 | 1019.2 |
| 20260905083646 | 87 | 355 | 3.0 | 8.0 | 0.00 | 0.00 | 0.00 | 61 | 1019.2 |
| 20260905083146 | 87 | 348 | 6.0 | 8.0 | 0.00 | 0.00 | 0.00 | 63 | 1019.1 |
| 20260905082643 | 87 | 278 | 5.0 | 8.0 | 0.00 | 0.00 | 0.00 | 64 | 1019.1 |
| 20260905082146 | 87 | 320 | 4.0 | 5.0 | 0.00 | 0.00 | 0.00 | 65 | 1019.1 |
| 20260905081643 | 87 | 238 | 4.0 | 6.0 | 0.00 | 0.00 | 0.00 | 65 | 1019.1 |
| 20260905081143 | 87 | 257 | 3.0 | 8.0 | 0.00 | 0.00 | 0.00 | 64 | 1019.1 |
| 20260905080643 | 87 | 293 | 6.0 | 6.0 | 0.00 | 0.00 | 0.00 | 64 | 1019.0 |
| 20260905080146 | 87 | 246 | 0.0 | 4.0 | 0.00 | 0.00 | 0.00 | 62 | 1019.0 |
| 20260905075646 | 86 | 326 | 1.0 | 5.0 | 0.00 | 0.00 | 0.00 | 61 | 1019.0 |
| 20260905075143 | 86 | 250 | 0.0 | 6.0 | 0.00 | 0.00 | 0.00 | 61 | 1018.8 |
| 20260905074652 | 85 | 225 | 2.0 | 5.0 | 0.00 | 0.00 | 0.00 | 63 | 1018.9 |
| 20260905074146 | 85 | 273 | 1.0 | 5.0 | 0.00 | 0.00 | 0.00 | 65 | 1018.9 |
| 20260905073646 | 85 | 250 | 2.0 | 4.0 | 0.00 | 0.00 | 0.00 | 67 | 1018.9 |
| 20260905073146 | 85 | 294 | 0.0 | 2.0 | 0.00 | 0.00 | 0.00 | 69 | 1018.8 |
| 20260905072643 | 85 | 243 | 2.0 | 6.0 | 0.00 | 0.00 | 0.00 | 69 | 1018.8 |
| 20260905072143 | 85 | 279 | 0.0 | 0.0 | 0.00 | 0.00 | 0.00 | 70 | 1018.8 |
| 20260905071643 | 84 | 237 | 0.0 | 3.0 | 0.00 | 0.00 | 0.00 | 69 | 1018.8 |
| 20260905071149 | 84 | 273 | 0.0 | 3.0 | 0.00 | 0.00 | 0.00 | 71 | 1018.7 |
| 20260905070643 | 84 | 244 | 2.0 | 3.0 | 0.00 | 0.00 | 0.00 | 71 | 1018.7 |
| 20260905070146 | 84 | 243 | 2.0 | 4.0 | 0.00 | 0.00 | 0.00 | 70 | 1018.7 |
| 20260905065646 | 84 | 271 | 0.0 | 0.0 | 0.00 | 0.00 | 0.00 | 69 | 1018.7 |
| 20260905065149 | 84 | 181 | 0.0 | 0.0 | 0.00 | 0.00 | 0.00 | 68 | 1018.7 |
| 20260905064643 | 83 | 154 | 0.0 | 0.0 | 0.00 | 0.00 | 0.00 | 67 | 1018.7 |
| 20260905064146 | 83 | 171 | 0.0 | 0.0 | 0.00 | 0.00 | 0.00 | 65 | 1018.7 |
| 20260905063643 | 83 | 153 | 0.0 | 3.0 | 0.00 | 0.00 | 0.00 | 64 | 1018.8 |
| 20260905063143 | 82 | 217 | 0.0 | 4.0 | 0.00 | 0.00 | 0.00 | 64 | 1018.8 |
| 20260905062646 | 82 | 184 | 1.0 | 5.0 | 0.00 | 0.00 | 0.00 | 63 | 1018.8 |
| 20260905062144 | 81 | 152 | 1.0 | 5.0 | 0.00 | 0.00 | 0.00 | 63 | 1018.8 |
| 20260905061646 | 81 | 173 | 2.0 | 5.0 | 0.00 | 0.00 | 0.00 | 62 | 1018.8 |
| 20260905061147 | 80 | 178 | 1.0 | 7.0 | 0.00 | 0.00 | 0.00 | 63 | 1018.8 |
| 20260905060643 | 80 | 134 | 5.0 | 7.0 | 0.00 | 0.00 | 0.00 | 63 | 1018.8 |
| 20260905060143 | 79 | 179 | 0.0 | 5.0 | 0.00 | 0.00 | 0.00 | 63 | 1018.7 |
| 20260905055650 | 79 | 167 | 4.0 | 5.0 | 0.00 | 0.00 | 0.00 | 63 | 1018.7 |
| 20260905055147 | 79 | 136 | 2.0 | 5.0 | 0.00 | 0.00 | 0.00 | 63 | 1018.7 |
| 20260905054650 | 78 | 121 | 3.0 | 6.0 | 0.00 | 0.00 | 0.00 | 63 | 1018.7 |
| 20260905054144 | 78 | 81 | 1.0 | 5.0 | 0.00 | 0.00 | 0.00 | 63 | 1018.7 |
| 20260905053649 | 77 | 111 | 0.0 | 6.0 | 0.00 | 0.00 | 0.00 | 63 | 1018.6 |
| 20260905053144 | 77 | 128 | 4.0 | 7.0 | 0.00 | 0.00 | 0.00 | 63 | 1018.6 |
| 20260905052647 | 77 | 137 | 2.0 | 7.0 | 0.00 | 0.00 | 0.00 | 62 | 1018.6 |
| 20260905052150 | 77 | 147 | 1.0 | 6.0 | 0.00 | 0.00 | 0.00 | 61 | 1018.5 |
| 20260905051644 | 76 | 130 | 2.0 | 6.0 | 0.00 | 0.00 | 0.00 | 61 | 1018.5 |
| 20260905051144 | 76 | 154 | 3.0 | 6.0 | 0.00 | 0.00 | 0.00 | 60 | 1018.4 |
| 20260905050643 | 76 | 187 | 3.0 | 6.0 | 0.00 | 0.00 | 0.00 | 60 | 1018.4 |
| 20260905050150 | 76 | 167 | 3.0 | 7.0 | 0.00 | 0.00 | 0.00 | 59 | 1018.4 |
| 20260905045644 | 76 | 180 | 3.0 | 8.0 | 0.00 | 0.00 | 0.00 | 59 | 1018.4 |
| 20260905045144 | 76 | 165 | 1.0 | 6.0 | 0.00 | 0.00 | 0.00 | 59 | 1018.3 |
| 20260905044644 | 76 | 146 | 2.0 | 7.0 | 0.00 | 0.00 | 0.00 | 58 | 1018.3 |
| 20260905044144 | 76 | 183 | 1.0 | 7.0 | 0.00 | 0.00 | 0.00 | 58 | 1018.2 |
| 20260905043644 | 76 | 164 | 3.0 | 5.0 | 0.00 | 0.00 | 0.00 | 57 | 1018.1 |
| 20260905043147 | 76 | 165 | 3.0 | 6.0 | 0.00 | 0.00 | 0.00 | 57 | 1018.1 |
| 20260905042647 | 76 | 95 | 5.0 | 6.0 | 0.00 | 0.00 | 0.00 | 57 | 1018.1 |
| 20260905042147 | 76 | 122 | 4.0 | 7.0 | 0.00 | 0.00 | 0.00 | 57 | 1018.1 |
| 20260905041650 | 76 | 126 | 2.0 | 7.0 | 0.00 | 0.00 | 0.00 | 57 | 1018.1 |
| 20260905041144 | 76 | 131 | 2.0 | 6.0 | 0.00 | 0.00 | 0.00 | 57 | 1018.1 |
| 20260905040647 | 76 | 183 | 3.0 | 7.0 | 0.00 | 0.00 | 0.00 | 57 | 1018.1 |
| 20260905040150 | 76 | 203 | 2.0 | 6.0 | 0.00 | 0.00 | 0.00 | 57 | 1018.1 |
| 20260905035647 | 76 | 146 | 5.0 | 7.0 | 0.00 | 0.00 | 0.00 | 57 | 1018.0 |
| 20260905035144 | 76 | 108 | 2.0 | 7.0 | 0.00 | 0.00 | 0.00 | 57 | 1018.0 |
| 20260905034644 | 76 | 171 | 1.0 | 7.0 | 0.00 | 0.00 | 0.00 | 57 | 1017.9 |
| 20260905034147 | 76 | 161 | 3.0 | 6.0 | 0.00 | 0.00 | 0.00 | 57 | 1017.9 |
| 20260905033647 | 76 | 144 | 3.0 | 5.0 | 0.00 | 0.00 | 0.00 | 57 | 1017.9 |
| 20260905033144 | 76 | 144 | 0.0 | 5.0 | 0.00 | 0.00 | 0.00 | 57 | 1017.8 |
| 20260905032647 | 76 | 173 | 4.0 | 7.0 | 0.00 | 0.00 | 0.00 | 57 | 1017.8 |
| 20260905032144 | 76 | 165 | 6.0 | 8.0 | 0.00 | 0.00 | 0.00 | 57 | 1017.7 |
| 20260905031644 | 76 | 123 | 5.0 | 7.0 | 0.00 | 0.00 | 0.00 | 57 | 1017.7 |
| 20260905031144 | 76 | 142 | 0.0 | 6.0 | 0.00 | 0.00 | 0.00 | 57 | 1017.7 |
| 20260905030650 | 76 | 155 | 2.0 | 7.0 | 0.00 | 0.00 | 0.00 | 57 | 1017.7 |
| 20260905030144 | 76 | 185 | 3.0 | 8.0 | 0.00 | 0.00 | 0.00 | 56 | 1017.7 |
| 20260905025644 | 76 | 160 | 2.0 | 8.0 | 0.00 | 0.00 | 0.00 | 56 | 1017.7 |
| 20260905025148 | 76 | 169 | 3.0 | 6.0 | 0.00 | 0.00 | 0.00 | 56 | 1017.7 |
| 20260905024644 | 76 | 177 | 1.0 | 6.0 | 0.00 | 0.00 | 0.00 | 56 | 1017.7 |
| 20260905024144 | 76 | 174 | 2.0 | 8.0 | 0.00 | 0.00 | 0.00 | 56 | 1017.7 |
| 20260905023650 | 76 | 145 | 2.0 | 7.0 | 0.00 | 0.00 | 0.00 | 56 | 1017.7 |
| 20260905023148 | 76 | 147 | 5.0 | 7.0 | 0.00 | 0.00 | 0.00 | 56 | 1017.7 |
| 20260905022650 | 76 | 165 | 7.0 | 6.0 | 0.00 | 0.00 | 0.00 | 55 | 1017.7 |
| 20260905022144 | 77 | 138 | 2.0 | 6.0 | 0.00 | 0.00 | 0.00 | 55 | 1017.7 |
| 20260905021647 | 77 | 171 | 3.0 | 7.0 | 0.00 | 0.00 | 0.00 | 54 | 1017.8 |
| 20260905021150 | 77 | 117 | 2.0 | 6.0 | 0.00 | 0.00 | 0.00 | 54 | 1017.7 |
| 20260905020647 | 77 | 163 | 2.0 | 7.0 | 0.00 | 0.00 | 0.00 | 54 | 1017.7 |
| 20260905020147 | 77 | 164 | 4.0 | 6.0 | 0.00 | 0.00 | 0.00 | 54 | 1017.7 |
| 20260905015641 | 77 | 126 | 6.0 | 7.0 | 0.00 | 0.00 | 0.00 | 54 | 1017.7 |
| 20260905015144 | 77 | 144 | 2.0 | 5.0 | 0.00 | 0.00 | 0.00 | 53 | 1017.8 |
| 20260905014644 | 77 | 138 | 1.0 | 6.0 | 0.00 | 0.00 | 0.00 | 53 | 1017.7 |
| 20260905014141 | 77 | 158 | 2.0 | 5.0 | 0.00 | 0.00 | 0.00 | 53 | 1017.8 |
| 20260905013641 | 77 | 150 | 3.0 | 6.0 | 0.00 | 0.00 | 0.00 | 53 | 1017.8 |
| 20260905013147 | 77 | 163 | 1.0 | 5.0 | 0.00 | 0.00 | 0.00 | 53 | 1017.8 |
| 20260905012641 | 77 | 154 | 0.0 | 4.0 | 0.00 | 0.00 | 0.00 | 53 | 1017.8 |
| 20260905012141 | 77 | 163 | 3.0 | 4.0 | 0.00 | 0.00 | 0.00 | 53 | 1017.8 |
| 20260905011641 | 77 | 196 | 2.0 | 4.0 | 0.00 | 0.00 | 0.00 | 53 | 1017.8 |
| 20260905011141 | 77 | 146 | 4.0 | 5.0 | 0.00 | 0.00 | 0.00 | 53 | 1017.8 |
| 20260905010641 | 78 | 183 | 3.0 | 6.0 | 0.00 | 0.00 | 0.00 | 53 | 1017.7 |
| 20260905010144 | 78 | 188 | 1.0 | 6.0 | 0.00 | 0.00 | 0.00 | 53 | 1017.7 |
| 20260905005641 | 78 | 138 | 2.0 | 5.0 | 0.00 | 0.00 | 0.00 | 54 | 1017.7 |
| 20260905005141 | 78 | 151 | 0.0 | 4.0 | 0.00 | 0.00 | 0.00 | 54 | 1017.7 |
| 20260905004641 | 78 | 157 | 2.0 | 4.0 | 0.00 | 0.00 | 0.00 | 54 | 1017.7 |
| 20260905004141 | 78 | 152 | 1.0 | 3.0 | 0.00 | 0.00 | 0.00 | 54 | 1017.6 |
| 20260905003641 | 78 | 169 | 2.0 | 4.0 | 0.00 | 0.00 | 0.00 | 54 | 1017.6 |
| 20260905003144 | 78 | 153 | 1.0 | 5.0 | 0.00 | 0.00 | 0.00 | 54 | 1017.6 |
| 20260905002642 | 78 | 159 | 2.0 | 5.0 | 0.00 | 0.00 | 0.00 | 54 | 1017.6 |
| 20260905002145 | 78 | 159 | 2.0 | 5.0 | 0.00 | 0.00 | 0.00 | 54 | 1017.6 |
| 20260905001644 | 78 | 175 | 5.0 | 5.0 | 0.00 | 0.00 | 0.00 | 54 | 1017.6 |
| 20260905001141 | 78 | 148 | 0.0 | 5.0 | 0.00 | 0.00 | 0.00 | 54 | 1017.6 |
| 20260905000642 | 78 | 140 | 2.0 | 3.0 | 0.00 | 0.00 | 0.00 | 55 | 1017.7 |
| 20260905000142 | 78 | 138 | 0.0 | 3.0 | 0.00 | 0.00 | 0.00 | 55 | 1017.7 |
| 20260904235645 | 78 | 171 | 2.0 | 5.0 | 0.00 | 0.00 | 0.00 | 55 | 1017.7 |
| 20260904235148 | 78 | 149 | 3.0 | 7.0 | 0.00 | 0.00 | 0.00 | 55 | 1017.6 |
| 20260904234645 | 78 | 174 | 0.0 | 6.0 | 0.00 | 0.00 | 0.00 | 55 | 1017.7 |
| 20260904234142 | 78 | 153 | 5.0 | 5.0 | 0.00 | 0.00 | 0.00 | 55 | 1017.7 |
| 20260904233642 | 78 | 125 | 2.0 | 5.0 | 0.00 | 0.00 | 0.00 | 55 | 1017.8 |
| 20260904233142 | 78 | 146 | 3.0 | 6.0 | 0.00 | 0.00 | 0.00 | 55 | 1017.8 |
| 20260904232642 | 78 | 147 | 2.0 | 7.0 | 0.00 | 0.00 | 0.00 | 55 | 1017.9 |
| 20260904232145 | 78 | 153 | 2.0 | 7.0 | 0.00 | 0.00 | 0.00 | 56 | 1017.9 |
| 20260904231642 | 78 | 227 | 1.0 | 5.0 | 0.00 | 0.00 | 0.00 | 56 | 1018.0 |
| 20260904231145 | 78 | 136 | 3.0 | 7.0 | 0.00 | 0.00 | 0.00 | 57 | 1018.1 |
| 20260904230642 | 78 | 149 | 3.0 | 7.0 | 0.00 | 0.00 | 0.00 | 58 | 1018.1 |
| 20260904230145 | 78 | 147 | 6.0 | 6.0 | 0.00 | 0.00 | 0.00 | 58 | 1018.2 |
| 20260904225642 | 78 | 137 | 4.0 | 5.0 | 0.00 | 0.00 | 0.00 | 59 | 1018.2 |
| 20260904225142 | 79 | 163 | 2.0 | 7.0 | 0.00 | 0.00 | 0.00 | 59 | 1018.2 |
| 20260904224642 | 79 | 116 | 2.0 | 5.0 | 0.00 | 0.00 | 0.00 | 59 | 1018.2 |
| 20260904224142 | 79 | 160 | 2.0 | 3.0 | 0.00 | 0.00 | 0.00 | 59 | 1018.2 |
| 20260904223645 | 79 | 149 | 1.0 | 3.0 | 0.00 | 0.00 | 0.00 | 60 | 1018.2 |
| 20260904223148 | 79 | 144 | 1.0 | 4.0 | 0.00 | 0.00 | 0.00 | 61 | 1018.2 |
| 20260904222642 | 79 | 171 | 0.0 | 4.0 | 0.00 | 0.00 | 0.00 | 62 | 1018.2 |
| 20260904222142 | 79 | 150 | 3.0 | 6.0 | 0.00 | 0.00 | 0.00 | 63 | 1018.2 |
| 20260904221648 | 79 | 147 | 4.0 | 6.0 | 0.00 | 0.00 | 0.00 | 64 | 1018.2 |
| 20260904221142 | 79 | 143 | 3.0 | 5.0 | 0.00 | 0.00 | 0.00 | 65 | 1018.2 |
| 20260904220645 | 79 | 147 | 0.0 | 5.0 | 0.00 | 0.00 | 0.00 | 66 | 1018.3 |
| 20260904220151 | 79 | 168 | 2.0 | 4.0 | 0.00 | 0.00 | 0.00 | 68 | 1018.2 |
| 20260904215648 | 79 | 157 | 0.0 | 5.0 | 0.00 | 0.00 | 0.00 | 69 | 1018.3 |
| 20260904215145 | 79 | 217 | 2.0 | 4.0 | 0.00 | 0.00 | 0.00 | 70 | 1018.3 |
| 20260904214645 | 79 | 158 | 3.0 | 3.0 | 0.00 | 0.00 | 0.00 | 72 | 1018.2 |
| 20260904214142 | 79 | 131 | 1.0 | 4.0 | 0.00 | 0.00 | 0.00 | 73 | 1018.2 |
| 20260904213645 | 80 | 180 | 1.0 | 3.0 | 0.00 | 0.00 | 0.00 | 74 | 1018.2 |
| 20260904213145 | 80 | 136 | 3.0 | 4.0 | 0.00 | 0.00 | 0.00 | 74 | 1018.3 |
| 20260904212642 | 80 | 149 | 2.0 | 3.0 | 0.00 | 0.00 | 0.00 | 75 | 1018.2 |
| 20260904212142 | 80 | 112 | 0.0 | 0.0 | 0.00 | 0.00 | 0.00 | 76 | 1018.3 |
| 20260904211642 | 80 | 148 | 0.0 | 1.0 | 0.00 | 0.00 | 0.00 | 77 | 1018.4 |
| 20260904211145 | 80 | 148 | 0.0 | 2.0 | 0.00 | 0.00 | 0.00 | 77 | 1018.4 |
| 20260904210645 | 80 | 155 | 0.0 | 4.0 | 0.00 | 0.00 | 0.00 | 77 | 1018.5 |
| 20260904210142 | 80 | 178 | 1.0 | 4.0 | 0.00 | 0.00 | 0.00 | 77 | 1018.5 |
| 20260904205642 | 80 | 183 | 5.0 | 5.0 | 0.00 | 0.00 | 0.00 | 77 | 1018.5 |
| 20260904205148 | 80 | 175 | 3.0 | 4.0 | 0.00 | 0.00 | 0.00 | 77 | 1018.5 |
| 20260904204642 | 80 | 196 | 2.0 | 6.0 | 0.00 | 0.00 | 0.00 | 76 | 1018.4 |
| 20260904204143 | 80 | 106 | 5.0 | 7.0 | 0.00 | 0.00 | 0.00 | 77 | 1018.4 |
| 20260904203645 | 80 | 175 | 3.0 | 6.0 | 0.00 | 0.00 | 0.00 | 77 | 1018.5 |
| 20260904203142 | 80 | 153 | 3.0 | 8.0 | 0.00 | 0.00 | 0.00 | 76 | 1018.5 |